EW6851 Barcellona Pozzo Di Gotto IT current weather conditions

sailwx.info

Wind from 113

Air temperature 25.6° C
Dewpoint 20.6° C

Last reported at 2020-Aug-12 06:01 UTC.
Time now 2020-Aug-12 06:30 UTC

Location: N 38°09' E 015°13'.
View on Google Maps.

See reports from other nearby stations

  
Tides and Currents Weather Stations Pressure Air Temp Water Temp Dewpoint Dewpoint Depression Visibility Wind Speed Wind Dir Waves Ship Positions
date/time (UTC)wind fromknots sea level pressurealtimeterstation pressurevisibilityair tempwater tempwave heightnotes
2020-Aug-12 06:01 113 25.6
2020-Aug-12 05:56 113 25.0
2020-Aug-12 05:51 113 25.0
2020-Aug-12 05:46 113 1 gusting 4 25.0
2020-Aug-12 05:41 113 1 gusting 3 24.4
2020-Aug-12 05:36 113 24.4
2020-Aug-12 05:31 113 24.4
2020-Aug-12 05:26 113 23.9
2020-Aug-12 05:21 113 0 gusting 4 23.9
2020-Aug-12 05:16 112 3 gusting 4 23.9
2020-Aug-12 05:11 112 2 gusting 4 23.9
2020-Aug-12 05:06 113 3 gusting 4 23.9
2020-Aug-12 05:01 113 3 gusting 4 23.3
2020-Aug-12 04:56 112 23.3
2020-Aug-12 04:51 112 3 gusting 4 23.3
2020-Aug-12 04:46 112 0 gusting 4 23.3
2020-Aug-12 04:41 112 2 gusting 3 23.3
2020-Aug-12 04:36 112 23.3
2020-Aug-12 04:31 112 4 gusting 4 23.3
2020-Aug-12 04:26 112 0 gusting 4 23.3
2020-Aug-12 04:21 112 1 gusting 3 23.3
2020-Aug-12 04:16 112 1 gusting 4 23.3
2020-Aug-12 04:11 117 0 gusting 4 23.3
2020-Aug-12 04:06 117 1 gusting 4 23.3
2020-Aug-12 04:01 117 23.3
2020-Aug-12 03:56 117 1 gusting 4 23.3
2020-Aug-12 03:51 118 3 gusting 4 23.3
2020-Aug-12 03:46 119 1 gusting 3 23.3
2020-Aug-12 03:41 119 0 gusting 3 23.3
2020-Aug-12 03:36 119 23.3
2020-Aug-12 03:31 119 2 gusting 6 23.9
2020-Aug-12 03:26 112 1 gusting 4 23.9
2020-Aug-12 03:21 111 23.9
2020-Aug-12 03:16 117 2 gusting 6 23.9
2020-Aug-12 03:11 109 2 gusting 6 23.9
2020-Aug-12 03:06 117 0 gusting 2 23.9
2020-Aug-12 03:01 117 23.9
2020-Aug-12 02:56 117 23.9
2020-Aug-12 02:51 117 1 gusting 2 23.9
2020-Aug-12 02:46 117 23.9
2020-Aug-12 02:41 117 1 gusting 6 23.9
2020-Aug-12 02:36 115 23.9
2020-Aug-12 02:31 114 1 gusting 2 23.9
2020-Aug-12 02:26 114 23.9
2020-Aug-12 02:21 114 23.9
2020-Aug-12 02:16 114 23.9
2020-Aug-12 02:11 114 23.9
2020-Aug-12 02:06 114 23.9
2020-Aug-12 02:01 114 23.9
2020-Aug-12 01:56 114 23.9
2020-Aug-12 01:51 118 3 gusting 4 23.9
2020-Aug-12 01:46 119 1 gusting 6 23.9
2020-Aug-12 01:41 118 0 gusting 3 23.9
2020-Aug-12 01:36 118 0 gusting 4 23.9
2020-Aug-12 01:31 119 23.9
2020-Aug-12 01:26 119 23.9
2020-Aug-12 01:21 119 6 gusting 6 23.9
2020-Aug-12 01:16 117 23.9
2020-Aug-12 01:11 117 23.9
2020-Aug-12 01:06 115 0 gusting 4 23.9
2020-Aug-12 01:01 115 0 gusting 3 23.9
2020-Aug-12 00:56 115 23.9
2020-Aug-12 00:51 115 0 gusting 4 23.9
2020-Aug-12 00:46 112 0 gusting 6 23.9
2020-Aug-12 00:41 111 23.9
2020-Aug-12 00:36 111 1 gusting 6 23.9
2020-Aug-12 00:31 111 1 gusting 4 24.4
2020-Aug-12 00:26 104 24.4
2020-Aug-12 00:21 104 24.4
2020-Aug-12 00:16 104 1 gusting 2 24.4
2020-Aug-12 00:11 104 24.4
2020-Aug-12 00:06 103 24.4
2020-Aug-12 00:01 103 0 gusting 4 24.4
2020-Aug-11 23:56 109 3 gusting 6 24.4
2020-Aug-11 23:51 115 3 gusting 4 24.4
2020-Aug-11 23:46 115 24.4
2020-Aug-11 23:41 115 24.4
2020-Aug-11 23:36 115 24.4
2020-Aug-11 23:31 111 1 gusting 2 24.4
2020-Aug-11 23:26 111 24.4
2020-Aug-11 23:21 094 1 gusting 6 24.4
2020-Aug-11 23:16 111 24.4
2020-Aug-11 23:11 121 1 gusting 7 24.4
2020-Aug-11 23:06 119 1 gusting 6 24.4
2020-Aug-11 23:01 111 24.4
2020-Aug-11 22:56 111 2 gusting 6 24.4
2020-Aug-11 22:51 096 24.4
2020-Aug-11 22:46 096 24.4
2020-Aug-11 22:41 096 24.4
2020-Aug-11 22:36 096 25.0
2020-Aug-11 22:31 096 25.0
2020-Aug-11 22:26 096 25.0
2020-Aug-11 22:21 096 25.0
2020-Aug-11 22:16 096 25.0
2020-Aug-11 22:11 096 2 gusting 2 25.0
2020-Aug-11 22:06 096 25.0
2020-Aug-11 21:56 096 25.0
2020-Aug-11 21:51 096 25.0
2020-Aug-11 21:46 096 25.0
2020-Aug-11 21:41 096 1 gusting 4 25.0
2020-Aug-11 21:36 096 0 gusting 4 25.0
2020-Aug-11 21:31 096 0 gusting 1 25.0
2020-Aug-11 21:26 096 1 gusting 5 25.0
2020-Aug-11 21:21 115 0 gusting 3 25.0
2020-Aug-11 21:16 115 1 gusting 4 25.0
2020-Aug-11 21:11 102 3 gusting 3 25.0
2020-Aug-11 21:06 103 25.6
2020-Aug-11 21:01 115 0 gusting 3 25.6
2020-Aug-11 20:56 115 25.6
2020-Aug-11 20:51 115 0 gusting 6 25.6
2020-Aug-11 20:46 115 25.6
2020-Aug-11 20:41 115 0 gusting 3 26.1
2020-Aug-11 20:36 115 26.1
2020-Aug-11 20:31 115 26.1
2020-Aug-11 20:26 115 26.1
2020-Aug-11 20:21 115 26.1
2020-Aug-11 20:16 115 26.1
2020-Aug-11 20:11 115 3 gusting 3 26.1
2020-Aug-11 20:06 115 26.1
2020-Aug-11 20:01 115 26.1
2020-Aug-11 19:56 115 26.1
2020-Aug-11 19:51 115 26.1
2020-Aug-11 19:46 115 26.1
2020-Aug-11 19:41 115 26.1
2020-Aug-11 19:36 115 26.7
2020-Aug-11 19:31 115 1 gusting 1 26.7
2020-Aug-11 19:26 115 26.7
2020-Aug-11 19:21 115 1 gusting 6 26.7
2020-Aug-11 19:16 096 4 gusting 4 26.7
2020-Aug-11 19:11 040 1 gusting 2 26.7
2020-Aug-11 19:06 038 26.7
2020-Aug-11 19:01 350 26.7
2020-Aug-11 18:56 349 0 gusting 0 27.2
2020-Aug-11 18:51 349 27.2
2020-Aug-11 18:46 349 27.2
2020-Aug-11 18:41 349 1 gusting 3 27.2
2020-Aug-11 18:36 349 27.2
2020-Aug-11 18:31 349 27.2
2020-Aug-11 18:26 351 1 gusting 6 27.2
2020-Aug-11 18:21 344 2 gusting 5 27.8
2020-Aug-11 18:16 348 0 gusting 3 27.8
2020-Aug-11 18:11 334 2 gusting 3 27.8
2020-Aug-11 18:06 334 2 gusting 3 27.8
2020-Aug-11 18:01 337 0 gusting 4 27.8
2020-Aug-11 17:56 336 3 gusting 4 27.8
2020-Aug-11 17:51 336 2 gusting 4 27.8
2020-Aug-11 17:46 336 1 gusting 5 27.8
2020-Aug-11 17:41 013 4 gusting 5 27.8
2020-Aug-11 17:36 350 1 gusting 4 28.3
2020-Aug-11 17:31 28.3
2020-Aug-11 17:26 355 3 gusting 5 28.3
2020-Aug-11 17:21 005 2 gusting 3 28.3
2020-Aug-11 17:16 005 2 gusting 4 28.3
2020-Aug-11 17:11 013 2 gusting 4 28.3
2020-Aug-11 17:06 340 2 gusting 5 28.3
2020-Aug-11 17:01 350 0 gusting 5 28.3
2020-Aug-11 16:56 355 1 gusting 6 28.9
2020-Aug-11 16:51 328 28.9
2020-Aug-11 16:46 351 0 gusting 6 28.9
2020-Aug-11 16:41 344 1 gusting 6 28.9
2020-Aug-11 16:36 28.9
2020-Aug-11 16:31 329 4 gusting 6 28.9
2020-Aug-11 16:26 345 6 gusting 6 28.9
2020-Aug-11 16:21 036 28.9
2020-Aug-11 16:16 017 4 gusting 6 28.9
2020-Aug-11 16:11 340 2 gusting 6 28.9
2020-Aug-11 16:06 005 1 gusting 6 28.9
2020-Aug-11 16:01 005 5 gusting 6 29.4
2020-Aug-11 15:56 026 1 gusting 9 29.4
2020-Aug-11 15:51 029 6 gusting 10 29.4
2020-Aug-11 15:46 033 2 gusting 9 29.4
2020-Aug-11 15:41 351 1 gusting 10 29.4
2020-Aug-11 15:36 010 6 gusting 9 30.0
2020-Aug-11 15:31 026 6 gusting 8 30.0
2020-Aug-11 15:26 019 4 gusting 8 30.0
2020-Aug-11 15:21 015 5 gusting 6 30.0
2020-Aug-11 15:16 355 1 gusting 8 30.0
2020-Aug-11 15:11 344 2 gusting 6 30.0
2020-Aug-11 15:06 30.6
2020-Aug-11 15:01 329 3 gusting 6 30.6
2020-Aug-11 14:56 355 0 gusting 8 30.6
2020-Aug-11 14:51 338 8 gusting 8 30.6
2020-Aug-11 14:46 321 30.6
2020-Aug-11 14:41 005 4 gusting 6 30.6
2020-Aug-11 14:36 337 6 gusting 6 30.6
2020-Aug-11 14:31 348 5 gusting 7 30.6
2020-Aug-11 14:26 035 1 gusting 5 31.1
2020-Aug-11 14:21 314 1 gusting 6 31.1
2020-Aug-11 14:16 311 1 gusting 5 31.1
2020-Aug-11 14:11 334 1 gusting 6 31.1
2020-Aug-11 14:06 015 31.1
2020-Aug-11 14:01 355 2 gusting 3 31.1
2020-Aug-11 13:56 351 1 gusting 5 31.1
2020-Aug-11 13:51 346 3 gusting 5 31.1
2020-Aug-11 13:46 032 31.1
2020-Aug-11 13:41 327 1 gusting 7 31.1
2020-Aug-11 13:36 280 0 gusting 6 31.1
2020-Aug-11 13:31 321 2 gusting 6 31.1
2020-Aug-11 13:26 267 1 gusting 5 31.7
2020-Aug-11 13:21 279 3 gusting 6 31.1
2020-Aug-11 13:16 242 31.1
2020-Aug-11 13:11 281 4 gusting 6 31.1
2020-Aug-11 13:06 277 0 gusting 5 31.1
2020-Aug-11 13:01 306 1 gusting 6 31.1
2020-Aug-11 12:56 302 4 gusting 6 31.1
2020-Aug-11 12:51 309 3 gusting 8 31.1
2020-Aug-11 12:41 313 6 gusting 8 31.1
2020-Aug-11 12:36 293 7 gusting 8 31.1
2020-Aug-11 12:31 287 3 gusting 5 31.1
2020-Aug-11 12:26 250 3 gusting 6 31.1
2020-Aug-11 12:21 314 31.1
2020-Aug-11 12:16 350 5 gusting 8 31.1
2020-Aug-11 12:11 315 5 gusting 8 31.1
2020-Aug-11 12:06 312 8 gusting 8 31.1
2020-Aug-11 12:01 298 3 gusting 8 31.7
2020-Aug-11 11:56 248 0 gusting 7 31.1
2020-Aug-11 11:51 287 4 gusting 7 31.1
2020-Aug-11 11:46 294 5 gusting 8 31.1
2020-Aug-11 11:41 323 4 gusting 7 31.1
2020-Aug-11 11:36 283 6 gusting 8 31.1
2020-Aug-11 11:31 259 6 gusting 8 31.1
2020-Aug-11 11:26 322 6 gusting 8 31.1
2020-Aug-11 11:21 294 4 gusting 7 31.1
2020-Aug-11 11:16 326 3 gusting 6 30.6
2020-Aug-11 11:11 321 1 gusting 7 30.6
2020-Aug-11 11:06 299 3 gusting 6 30.6
2020-Aug-11 11:01 265 4 gusting 6 30.6
2020-Aug-11 10:56 274 7 gusting 7 30.6
2020-Aug-11 10:51 333 5 gusting 6 30.6
2020-Aug-11 10:46 269 6 gusting 6 30.6
2020-Aug-11 10:41 301 30.6
2020-Aug-11 10:37 288 4 gusting 6 30.6
2020-Aug-11 10:31 289 30.6
2020-Aug-11 10:26 272 30.6
2020-Aug-11 10:21 302 4 gusting 6 30.6
2020-Aug-11 10:16 312 2 gusting 6 30.6
2020-Aug-11 10:11 344 30.6
2020-Aug-11 10:06 011 1 gusting 7 30.0
2020-Aug-11 10:01 309 1 gusting 6 30.0
2020-Aug-11 09:56 269 1 gusting 6 30.0
2020-Aug-11 09:51 266 2 gusting 6 30.0
2020-Aug-11 09:46 321 6 gusting 7 30.0
2020-Aug-11 09:41 333 2 gusting 6 30.0
2020-Aug-11 09:36 342 0 gusting 5 30.0
2020-Aug-11 09:31 317 5 gusting 5 30.0
2020-Aug-11 09:26 313 0 gusting 6 30.0
2020-Aug-11 09:21 292 1 gusting 6 30.0
2020-Aug-11 09:16 281 2 gusting 6 30.0
2020-Aug-11 09:11 268 4 gusting 6 29.4
2020-Aug-11 09:06 290 1 gusting 5 29.4
2020-Aug-11 09:01 324 4 gusting 5 29.4
2020-Aug-11 08:56 275 4 gusting 6 29.4
2020-Aug-11 08:51 300 29.4
2020-Aug-11 08:46 287 1 gusting 5 29.4
2020-Aug-11 08:41 274 29.4
2020-Aug-11 08:36 267 2 gusting 4 29.4
2020-Aug-11 08:31 262 28.9
2020-Aug-11 08:26 262 0 gusting 3 28.9
2020-Aug-11 08:21 260 3 gusting 4 28.9
2020-Aug-11 08:16 252 3 gusting 4 28.9
2020-Aug-11 08:11 250 1 gusting 4 28.9
2020-Aug-11 08:06 247 28.9
2020-Aug-11 08:01 334 1 gusting 4 28.9
2020-Aug-11 07:56 082 28.9
2020-Aug-11 07:51 088 1 gusting 4 28.3
2020-Aug-11 07:46 169 0 gusting 2 28.3
2020-Aug-11 07:41 167 28.3
2020-Aug-11 07:36 167 28.3
2020-Aug-11 07:31 167 28.3
2020-Aug-11 07:26 167 28.3
2020-Aug-11 07:21 167 27.8
2020-Aug-11 07:16 126 27.8
2020-Aug-11 07:11 126 27.8
2020-Aug-11 07:06 126 27.2
2020-Aug-11 07:01 126 27.2
2020-Aug-11 06:56 124 1 gusting 2 27.2
2020-Aug-11 06:51 115 27.2
2020-Aug-11 06:46 115 26.7
2020-Aug-11 06:41 115 26.7
2020-Aug-11 06:36 115 26.1
2020-Aug-11 06:31 115 26.1
2020-Aug-11 06:26 115 26.1
2020-Aug-11 06:21 115 25.6
2020-Aug-11 06:16 115 25.6
2020-Aug-11 06:11 115 0 gusting 2 25.6
2020-Aug-11 06:06 115 0 gusting 2 25.6
2020-Aug-11 06:01 114 25.0
2020-Aug-11 05:56 115 25.0
2020-Aug-11 05:51 115 1 gusting 4 25.0
2020-Aug-11 05:46 116 24.4
2020-Aug-11 05:41 111 24.4
2020-Aug-11 05:36 108 1 gusting 3 24.4
2020-Aug-11 05:31 119 24.4
2020-Aug-11 05:26 119 1 gusting 1 23.9
2020-Aug-11 05:21 119 23.9
2020-Aug-11 05:16 119 0 gusting 2 23.9
2020-Aug-11 05:11 119 23.9
2020-Aug-11 05:06 116 23.3
2020-Aug-11 05:01 123 1 gusting 6 23.3
2020-Aug-11 04:56 110 23.3
2020-Aug-11 04:51 101 0 gusting 6 23.3
2020-Aug-11 04:46 117 1 gusting 6 23.3
2020-Aug-11 04:41 123 23.3
2020-Aug-11 04:36 115 2 gusting 6 23.3
2020-Aug-11 04:32 124 2 gusting 4 23.3
2020-Aug-11 04:26 124 2 gusting 4 23.3
2020-Aug-11 04:21 124 23.3
2020-Aug-11 04:16 124 2 gusting 6 23.3
2020-Aug-11 04:11 114 3 gusting 6 23.3
2020-Aug-11 04:06 112 2 gusting 6 23.3
2020-Aug-11 04:01 127 1 gusting 6 23.3
2020-Aug-11 03:56 109 1 gusting 6 23.3
2020-Aug-11 03:51 107 0 gusting 4 23.3
2020-Aug-11 03:46 111 23.3
2020-Aug-11 03:41 118 3 gusting 4 23.3
2020-Aug-11 03:36 132 1 gusting 6 23.3
2020-Aug-11 03:31 103 23.3
2020-Aug-11 03:26 115 0 gusting 6 23.3
2020-Aug-11 03:21 122 1 gusting 5 23.3
2020-Aug-11 03:16 108 4 gusting 5 23.3
2020-Aug-11 03:11 124 23.3
2020-Aug-11 03:06 113 3 gusting 4 23.3
2020-Aug-11 03:01 120 0 gusting 6 23.3
2020-Aug-11 02:56 109 3 gusting 3 23.3
2020-Aug-11 02:51 107 0 gusting 7 23.3
2020-Aug-11 02:46 103 2 gusting 6 23.3
2020-Aug-11 02:41 097 23.3
2020-Aug-11 02:36 120 1 gusting 6 23.3
2020-Aug-11 02:31 127 1 gusting 6 23.3
2020-Aug-11 02:26 128 1 gusting 6 23.3
2020-Aug-11 02:21 122 4 gusting 6 23.3
2020-Aug-11 02:16 091 2 gusting 6 23.3
2020-Aug-11 02:11 115 0 gusting 4 23.3
2020-Aug-11 02:06 117 2 gusting 6 23.3
2020-Aug-11 02:01 109 23.3
2020-Aug-11 01:56 109 23.3
2020-Aug-11 01:51 111 1 gusting 6 23.3
2020-Aug-11 01:46 118 0 gusting 6 23.3
2020-Aug-11 01:41 115 4 gusting 6 23.3
2020-Aug-11 01:36 127 23.3
2020-Aug-11 01:31 097 23.3
2020-Aug-11 01:26 101 2 gusting 6 23.3
2020-Aug-11 01:21 098 0 gusting 5 23.3
2020-Aug-11 01:16 126 2 gusting 5 23.3
2020-Aug-11 01:11 113 1 gusting 4 23.3
2020-Aug-11 01:06 117 2 gusting 6 23.9
2020-Aug-11 01:01 115 3 gusting 6 23.9
2020-Aug-11 00:56 126 0 gusting 6 23.9
2020-Aug-11 00:51 113 1 gusting 4 23.9
2020-Aug-11 00:46 119 23.9
2020-Aug-11 00:41 123 1 gusting 3 23.9
2020-Aug-11 00:36 123 23.9
2020-Aug-11 00:31 123 23.9
2020-Aug-11 00:26 123 23.9
2020-Aug-11 00:21 123 23.9
2020-Aug-11 00:16 125 0 gusting 4 23.9
2020-Aug-11 00:11 126 23.9
2020-Aug-11 00:06 109 2 gusting 3 23.9
2020-Aug-11 00:02 109 1 gusting 3 23.9
2020-Aug-10 23:56 109 1 gusting 3 23.9
2020-Aug-10 23:51 107 0 gusting 4 23.9
2020-Aug-10 23:46 107 23.9
2020-Aug-10 23:41 107 1 gusting 4 23.9
2020-Aug-10 23:36 119 23.9
2020-Aug-10 23:31 118 23.9
2020-Aug-10 23:26 116 1 gusting 6 23.9
2020-Aug-10 23:21 112 3 gusting 6 23.9
2020-Aug-10 23:16 121 1 gusting 5 23.9
2020-Aug-10 23:11 130 3 gusting 4 24.4
2020-Aug-10 23:06 128 23.9
2020-Aug-10 23:01 128 1 gusting 2 23.9
2020-Aug-10 22:56 128 1 gusting 4 23.9
2020-Aug-10 22:51 134 1 gusting 3 23.9
2020-Aug-10 22:46 134 23.9
2020-Aug-10 22:41 131 4 gusting 6 24.4
2020-Aug-10 22:36 115 3 gusting 6 24.4
2020-Aug-10 22:31 126 0 gusting 4 24.4
2020-Aug-10 22:26 127 2 gusting 6 24.4
2020-Aug-10 22:21 121 3 gusting 6 24.4
2020-Aug-10 22:16 125 1 gusting 6 24.4
2020-Aug-10 22:11 123 0 gusting 2 24.4
2020-Aug-10 22:06 123 24.4
2020-Aug-10 22:01 125 1 gusting 4 24.4
2020-Aug-10 21:56 132 24.4
2020-Aug-10 21:51 132 1 gusting 4 24.4
2020-Aug-10 21:46 122 24.4
2020-Aug-10 21:41 122 2 gusting 3 24.4
2020-Aug-10 21:36 122 24.4
2020-Aug-10 21:31 117 0 gusting 4 25.0
2020-Aug-10 21:26 117 2 gusting 4 25.0
2020-Aug-10 21:21 116 1 gusting 3 24.4
2020-Aug-10 21:16 118 2 gusting 3 24.4
2020-Aug-10 21:11 119 1 gusting 4 25.0
2020-Aug-10 21:06 119 4 gusting 7 25.0
2020-Aug-10 21:01 121 1 gusting 5 25.0
2020-Aug-10 20:56 107 3 gusting 3 25.0
2020-Aug-10 20:51 107 25.0
2020-Aug-10 20:46 115 1 gusting 3 25.0
2020-Aug-10 20:41 115 0 gusting 3 25.0
2020-Aug-10 20:36 113 2 gusting 2 25.6
2020-Aug-10 20:31 113 25.6
2020-Aug-10 20:26 113 25.6
2020-Aug-10 20:21 108 25.6
2020-Aug-10 20:16 108 25.6
2020-Aug-10 20:11 108 25.6
2020-Aug-10 20:06 108 25.6
2020-Aug-10 20:01 107 25.6
2020-Aug-10 19:56 106 3 gusting 3 26.1
2020-Aug-10 19:51 106 26.1
2020-Aug-10 19:46 106 26.1
2020-Aug-10 19:41 110 0 gusting 4 26.1
2020-Aug-10 19:36 109 0 gusting 4 26.1
2020-Aug-10 19:31 109 3 gusting 4 26.1
2020-Aug-10 19:26 098 0 gusting 5 26.1
2020-Aug-10 19:21 096 26.1
2020-Aug-10 19:16 094 1 gusting 2 26.1
2020-Aug-10 19:11 094 26.7
2020-Aug-10 19:06 103 2 gusting 6 26.7
2020-Aug-10 19:01 142 0 gusting 3 27.2
2020-Aug-10 18:56 315 27.2
2020-Aug-10 18:51 315 0 gusting 2 27.2
2020-Aug-10 18:46 315 27.2
2020-Aug-10 18:41 315 27.2
2020-Aug-10 18:36 315 27.2
2020-Aug-10 18:31 315 27.2
2020-Aug-10 18:26 315 27.2
2020-Aug-10 18:21 315 27.2
2020-Aug-10 18:16 315 27.8
2020-Aug-10 18:11 315 0 gusting 2 27.8
2020-Aug-10 18:06 315 1 gusting 3 27.8
2020-Aug-10 18:01 315 2 gusting 3 27.8
2020-Aug-10 17:56 315 2 gusting 4 28.3
2020-Aug-10 17:51 286 2 gusting 2 28.3
2020-Aug-10 17:46 265 0 gusting 1 28.3
2020-Aug-10 17:41 265 0 gusting 2 28.3
2020-Aug-10 17:36 265 28.3
2020-Aug-10 17:31 265 28.9
2020-Aug-10 17:26 265 1 gusting 3 28.9
2020-Aug-10 17:21 263 28.9
2020-Aug-10 17:16 256 28.9
2020-Aug-10 17:11 264 1 gusting 4 29.4
2020-Aug-10 17:06 261 29.4
2020-Aug-10 17:01 261 0 gusting 4 29.4
2020-Aug-10 16:56 261 4 gusting 6 29.4
2020-Aug-10 16:51 247 2 gusting 3 29.4
2020-Aug-10 16:46 296 0 gusting 4 29.4
2020-Aug-10 16:41 260 1 gusting 4 29.4
2020-Aug-10 16:36 258 29.4
2020-Aug-10 16:31 258 0 gusting 2 29.4
2020-Aug-10 16:21 258 3 gusting 4 29.4
2020-Aug-10 16:16 274 29.4
2020-Aug-10 16:11 273 3 gusting 4 29.4
2020-Aug-10 16:06 271 1 gusting 3 29.4
2020-Aug-10 16:01 282 29.4
2020-Aug-10 15:56 319 2 gusting 6 29.4
2020-Aug-10 15:51 307 1 gusting 3 30.0
2020-Aug-10 15:46 309 1 gusting 4 30.0
2020-Aug-10 15:41 271 3 gusting 6 30.0
2020-Aug-10 15:36 283 4 gusting 6 30.0
2020-Aug-10 15:31 264 4 gusting 6 30.0
2020-Aug-10 15:26 263 4 gusting 6 30.0
2020-Aug-10 15:21 252 1 gusting 6 30.6
2020-Aug-10 15:16 288 4 gusting 5 30.6
2020-Aug-10 15:11 311 1 gusting 4 30.6
2020-Aug-10 15:06 300 2 gusting 6 30.6
2020-Aug-10 15:01 279 0 gusting 6 30.6
2020-Aug-10 14:56 269 2 gusting 4 30.6
2020-Aug-10 14:51 313 1 gusting 5 30.6
2020-Aug-10 14:46 319 1 gusting 5 30.6
2020-Aug-10 14:41 286 3 gusting 6 30.6
2020-Aug-10 14:36 310 1 gusting 5 30.6
2020-Aug-10 14:31 286 30.6
2020-Aug-10 14:26 285 1 gusting 6 30.6
2020-Aug-10 14:21 252 1 gusting 6 30.6
2020-Aug-10 14:16 279 30.0
2020-Aug-10 14:11 319 2 gusting 4 30.6
2020-Aug-10 14:06 273 0 gusting 6 30.6
2020-Aug-10 14:01 321 4 gusting 6 30.6
2020-Aug-10 13:56 242 1 gusting 6 30.6
2020-Aug-10 13:51 271 3 gusting 6 30.6
2020-Aug-10 13:46 234 4 gusting 6 30.6
2020-Aug-10 13:41 265 1 gusting 5 30.6
2020-Aug-10 13:26 253 2 gusting 6 30.6
2020-Aug-10 13:21 297 2 gusting 5 30.6
2020-Aug-10 13:16 260 4 gusting 6 30.6
2020-Aug-10 13:11 301 4 gusting 6 30.6
2020-Aug-10 13:06 260 6 gusting 8 30.6
2020-Aug-10 13:01 283 3 gusting 6 30.6
2020-Aug-10 12:56 315 0 gusting 7 30.6
2020-Aug-10 12:51 285 6 gusting 7 30.6
2020-Aug-10 12:46 244 2 gusting 6 30.6
2020-Aug-10 12:41 259 1 gusting 8 30.6
2020-Aug-10 12:36 306 4 gusting 6 30.6
2020-Aug-10 12:31 267 3 gusting 6 30.6
2020-Aug-10 12:26 230 0 gusting 8 30.6
2020-Aug-10 12:21 270 4 gusting 6 30.6
2020-Aug-10 12:16 252 2 gusting 8 30.6
2020-Aug-10 12:11 272 3 gusting 7 30.6
2020-Aug-10 12:06 305 5 gusting 6 30.6
2020-Aug-10 12:01 272 2 gusting 7 30.6
2020-Aug-10 11:56 267 3 gusting 6 30.6
2020-Aug-10 11:51 285 30.0
2020-Aug-10 11:46 259 1 gusting 6 30.0
2020-Aug-10 11:41 280 5 gusting 6 30.0
2020-Aug-10 11:36 298 30.0
2020-Aug-10 11:31 261 3 gusting 6 30.0
2020-Aug-10 11:26 302 4 gusting 6 30.0
2020-Aug-10 11:21 326 3 gusting 6 30.0
2020-Aug-10 11:16 321 30.0
2020-Aug-10 11:11 294 30.0
2020-Aug-10 11:06 329 2 gusting 6 30.0
2020-Aug-10 11:01 295 4 gusting 6 30.0
2020-Aug-10 10:56 242 30.0
2020-Aug-10 10:51 292 3 gusting 4 30.0
2020-Aug-10 10:46 225 3 gusting 6 30.0
2020-Aug-10 10:41 259 2 gusting 6 30.0
2020-Aug-10 10:36 265 3 gusting 5 30.0
2020-Aug-10 10:31 282 4 gusting 6 30.0
2020-Aug-10 10:26 254 1 gusting 6 29.4
2020-Aug-10 10:21 290 0 gusting 6 29.4
2020-Aug-10 10:16 273 4 gusting 8 29.4
2020-Aug-10 10:11 251 4 gusting 7 30.0
2020-Aug-10 10:06 266 3 gusting 6 30.0
2020-Aug-10 10:01 266 2 gusting 5 29.4
2020-Aug-10 09:56 250 4 gusting 6 29.4
2020-Aug-10 09:51 289 1 gusting 6 29.4
2020-Aug-10 09:46 259 29.4
2020-Aug-10 09:41 241 1 gusting 6 29.4
2020-Aug-10 09:36 245 4 gusting 6 29.4
2020-Aug-10 09:31 267 4 gusting 4 29.4
2020-Aug-10 09:26 267 1 gusting 5 29.4
2020-Aug-10 09:21 271 1 gusting 6 29.4
2020-Aug-10 09:16 290 0 gusting 3 29.4
2020-Aug-10 09:11 286 0 gusting 3 29.4
2020-Aug-10 09:06 293 28.9
2020-Aug-10 09:01 298 3 gusting 5 28.9
2020-Aug-10 08:56 320 28.9
2020-Aug-10 08:51 305 5 gusting 6 28.9
2020-Aug-10 08:46 272 2 gusting 5 28.9
2020-Aug-10 08:41 279 2 gusting 6 28.9
2020-Aug-10 08:36 279 0 gusting 5 28.9
2020-Aug-10 08:31 218 0 gusting 5 28.9
2020-Aug-10 08:26 285 3 gusting 6 28.9
2020-Aug-10 08:21 251 1 gusting 5 28.9
2020-Aug-10 08:16 248 28.9
2020-Aug-10 08:11 250 1 gusting 5 28.9
2020-Aug-10 08:06 263 3 gusting 3 28.9
2020-Aug-10 08:01 261 0 gusting 2 28.9
2020-Aug-10 07:56 261 28.9
2020-Aug-10 07:51 261 2 gusting 5 28.9
2020-Aug-10 07:46 259 0 gusting 2 28.9
2020-Aug-10 07:41 259 28.9
2020-Aug-10 07:36 259 28.3
2020-Aug-10 07:31 259 2 gusting 2 28.3
2020-Aug-10 07:26 258 28.3
2020-Aug-10 07:21 259 28.3
2020-Aug-10 07:16 121 28.3
2020-Aug-10 07:11 121 28.3
2020-Aug-10 07:06 121 28.3
2020-Aug-10 07:01 121 27.8
2020-Aug-10 06:56 121 27.8
2020-Aug-10 06:51 121 27.2
2020-Aug-10 06:46 121 27.2
2020-Aug-10 06:41 121 27.2
2020-Aug-10 06:36 121 26.7
2020-Aug-10 06:31 121 0 gusting 0 26.7
2020-Aug-10 06:26 121 26.1
2020-Aug-10 06:21 121 26.1
2020-Aug-10 06:16 121 25.6
2020-Aug-10 06:11 121 25.0
2020-Aug-10 06:06 121 25.0
2020-Aug-10 06:01 121 24.4